When you browse on this site, cookies collect data to enhance your experience and personalize the content and advertising you see.
Visit our Privacy Policy to learn more. By continuing to use the site, you agree to this use of cookies and data.
  • In Latvia
  • List of Countries
  • For 7 days
  • Water Temperature
  • Weather Map
  • Weather Widgets
  • user-avatar
    Login

    Hourly Weather Innsbruck

    Today, 19 January, Sunday

    Time Temperature Precipitation Wind Pressure Humidity
    00:00 -12°C° 0 mm 1 mps 595 mmHg 90%
    01:00 -12°C° 0 mm 1 mps 595 mmHg 87%
    02:00 -12°C° 0.1 mm 1 mps 595 mmHg 87%
    03:00 -12°C° 0.1 mm 1 mps 595 mmHg 87%
    04:00 -12°C° 0.1 mm 1 mps 595 mmHg 87%
    05:00 -12°C° 0.1 mm 1 mps 595 mmHg 88%
    06:00 -12°C° 0.1 mm 1 mps 595 mmHg 88%
    07:00 -12°C° 0 mm 1 mps 596 mmHg 90%
    08:00 -11°C° 0.4 mm 1 mps 596 mmHg 90%
    09:00 -11°C° 0.4 mm 1 mps 597 mmHg 89%
    10:00 -10°C° 0.4 mm 1 mps 597 mmHg 89%
    11:00 -10°C° 0.3 mm 2 mps 598 mmHg 86%
    12:00 -10°C° 0.3 mm 2 mps 598 mmHg 84%
    13:00 -9°C° 0.3 mm 2 mps 599 mmHg 81%
    14:00 -9°C° 0.2 mm 2 mps 599 mmHg 82%
    15:00 -10°C° 0.2 mm 2 mps 599 mmHg 84%
    16:00 -10°C° 0.2 mm 2 mps 599 mmHg 85%
    17:00 -12°C° 0.1 mm 2 mps 599 mmHg 88%
    18:00 -11°C° 0.1 mm 1 mps 599 mmHg 91%
    19:00 -12°C° 0.1 mm 1 mps 599 mmHg 94%
    20:00 -13°C° 0 mm 1 mps 599 mmHg 94%
    21:00 -13°C° 0 mm 1 mps 600 mmHg 94%
    22:00 -13°C° 0 mm 1 mps 600 mmHg 94%
    23:00 -14°C° 0 mm 1 mps 600 mmHg 92%

    Tomorrow, 20 January, Monday

    Time Temperature Precipitation Wind Pressure Humidity
    00:00 -14°C° 0 mm 1 mps 600 mmHg 91%
    01:00 -14°C° 0 mm 1 mps 601 mmHg 89%
    02:00 -15°C° 0 mm 1 mps 600 mmHg 88%
    03:00 -15°C° 0 mm 1 mps 600 mmHg 87%
    04:00 -15°C° 0 mm 1 mps 600 mmHg 87%
    05:00 -15°C° 0 mm 1 mps 601 mmHg 85%
    06:00 -15°C° 0 mm 1 mps 601 mmHg 84%
    07:00 -15°C° 0 mm 1 mps 601 mmHg 82%
    08:00 -14°C° 0 mm 1 mps 602 mmHg 78%
    09:00 -12°C° 0 mm 1 mps 603 mmHg 75%
    10:00 -11°C° 0 mm 1 mps 603 mmHg 71%
    11:00 -10°C° 0 mm 1 mps 604 mmHg 66%
    12:00 -8°C° 0 mm 1 mps 604 mmHg 62%
    13:00 -7°C° 0 mm 1 mps 604 mmHg 57%
    14:00 -8°C° 0 mm 1 mps 604 mmHg 61%
    15:00 -8°C° 0 mm 1 mps 604 mmHg 64%
    16:00 -9°C° 0 mm 1 mps 603 mmHg 67%
    17:00 -10°C° 0 mm 2 mps 603 mmHg 61%
    18:00 -12°C° 0 mm 2 mps 603 mmHg 55%
    19:00 -13°C° 0 mm 2 mps 603 mmHg 49%
    20:00 -14°C° 0 mm 3 mps 603 mmHg 47%
    21:00 -13°C° 0 mm 3 mps 604 mmHg 45%
    22:00 -13°C° 0 mm 3 mps 604 mmHg 43%
    23:00 -13°C° 0 mm 3 mps 604 mmHg 44%

    Day after tomorrow, 21 January, Tuesday

    Time Temperature Precipitation Wind Pressure Humidity
    00:00 -12°C° 0 mm 3 mps 604 mmHg 44%
    01:00 -12°C° 0 mm 3 mps 604 mmHg 44%
    02:00 -10°C° 0 mm 3 mps 604 mmHg 45%
    03:00 -10°C° 0 mm 3 mps 604 mmHg 46%
    04:00 -10°C° 0 mm 3 mps 604 mmHg 47%
    05:00 -9°C° 0 mm 2 mps 604 mmHg 47%
    06:00 -8°C° 0 mm 2 mps 604 mmHg 46%
    07:00 -8°C° 0 mm 2 mps 604 mmHg 46%
    08:00 -7°C° 0 mm 2 mps 605 mmHg 48%
    09:00 -5°C° 0 mm 2 mps 605 mmHg 49%
    10:00 -4°C° 0 mm 2 mps 606 mmHg 51%
    11:00 -3°C° 0 mm 2 mps 606 mmHg 53%
    12:00 0°C° 0 mm 1 mps 606 mmHg 56%
    13:00 +2°C° 0 mm 1 mps 606 mmHg 58%
    14:00 +1°C° 0 mm 1 mps 606 mmHg 57%
    15:00 0°C° 0 mm 1 mps 605 mmHg 56%
    16:00 -3°C° 0 mm 2 mps 604 mmHg 55%
    17:00 -4°C° 0 mm 2 mps 604 mmHg 51%
    18:00 -5°C° 0 mm 2 mps 604 mmHg 46%
    19:00 -6°C° 0 mm 2 mps 603 mmHg 42%
    20:00 -6°C° 0 mm 2 mps 603 mmHg 42%
    21:00 -6°C° 0 mm 2 mps 603 mmHg 41%
    22:00 -5°C° 0 mm 2 mps 603 mmHg 41%
    23:00 -5°C° 0 mm 2 mps 603 mmHg 42%

    22 January, Wednesday

    Time Temperature Precipitation Wind Pressure Humidity
    00:00 -5°C° 0 mm 2 mps 603 mmHg 42%
    01:00 -5°C° 0 mm 2 mps 603 mmHg 43%
    02:00 -5°C° 0 mm 2 mps 602 mmHg 44%
    03:00 -5°C° 0 mm 2 mps 602 mmHg 44%
    04:00 -5°C° 0 mm 2 mps 602 mmHg 44%
    05:00 -5°C° 0 mm 2 mps 602 mmHg 44%
    06:00 -5°C° 0 mm 2 mps 601 mmHg 44%
    07:00 -5°C° 0 mm 2 mps 601 mmHg 44%
    08:00 -2°C° 0 mm 1 mps 602 mmHg 46%
    09:00 -1°C° 0 mm 1 mps 602 mmHg 48%
    10:00 0°C° 0 mm 1 mps 603 mmHg 50%
    11:00 +1°C° 0 mm 1 mps 603 mmHg 57%
    12:00 +1°C° 0 mm 0 mps 603 mmHg 64%
    13:00 +2°C° 0 mm 0 mps 603 mmHg 71%
    14:00 +1°C° 0 mm 0 mps 602 mmHg 67%
    15:00 0°C° 0 mm 0 mps 602 mmHg 64%
    16:00 -1°C° 0 mm 0 mps 601 mmHg 60%
    17:00 0°C° 0 mm 1 mps 601 mmHg 57%
    18:00 -1°C° 0 mm 1 mps 601 mmHg 53%
    19:00 -2°C° 0 mm 1 mps 600 mmHg 50%
    20:00 -2°C° 0 mm 1 mps 600 mmHg 48%
    21:00 -3°C° 0 mm 1 mps 600 mmHg 47%
    22:00 -3°C° 0 mm 1 mps 600 mmHg 46%
    23:00 -3°C° 0 mm 1 mps 600 mmHg 45%

    23 January, Thursday

    Time Temperature Precipitation Wind Pressure Humidity
    00:00 -3°C° 0 mm 1 mps 600 mmHg 44%
    01:00 -3°C° 0 mm 1 mps 600 mmHg 43%
    02:00 -3°C° 0 mm 1 mps 600 mmHg 41%
    03:00 -3°C° 0 mm 1 mps 599 mmHg 40%
    04:00 -3°C° 0 mm 1 mps 599 mmHg 38%
    05:00 -5°C° 0 mm 2 mps 599 mmHg 38%
    06:00 -5°C° 0 mm 2 mps 599 mmHg 38%
    07:00 -5°C° 0 mm 2 mps 599 mmHg 38%
    08:00 -4°C° 0 mm 2 mps 599 mmHg 41%
    09:00 -3°C° 0 mm 2 mps 599 mmHg 44%
    10:00 -2°C° 0 mm 2 mps 600 mmHg 48%
    11:00 -1°C° 0 mm 2 mps 600 mmHg 51%
    12:00 +1°C° 0 mm 2 mps 600 mmHg 54%
    13:00 +2°C° 0 mm 2 mps 600 mmHg 58%
    14:00 +1°C° 0 mm 2 mps 600 mmHg 57%
    15:00 -1°C° 0 mm 2 mps 599 mmHg 57%
    16:00 -2°C° 0 mm 2 mps 598 mmHg 57%
    17:00 -3°C° 0 mm 2 mps 598 mmHg 54%
    18:00 -4°C° 0 mm 2 mps 598 mmHg 51%
    19:00 -5°C° 0 mm 2 mps 598 mmHg 48%
    20:00 -5°C° 0 mm 2 mps 598 mmHg 47%
    21:00 -3°C° 0 mm 1 mps 598 mmHg 45%
    22:00 -3°C° 0 mm 1 mps 598 mmHg 44%
    23:00 -3°C° 0 mm 1 mps 598 mmHg 44%

    24 January, Friday

    Time Temperature Precipitation Wind Pressure Humidity
    00:00 -3°C° 0 mm 1 mps 598 mmHg 43%
    01:00 -4°C° 0 mm 1 mps 598 mmHg 42%
    02:00 -4°C° 0 mm 1 mps 598 mmHg 42%
    03:00 -4°C° 0 mm 1 mps 597 mmHg 41%
    04:00 -4°C° 0 mm 1 mps 597 mmHg 41%
    05:00 -4°C° 0 mm 1 mps 597 mmHg 41%
    06:00 -4°C° 0 mm 1 mps 597 mmHg 42%
    07:00 -4°C° 0 mm 1 mps 597 mmHg 42%
    08:00 -3°C° 0 mm 1 mps 598 mmHg 45%
    09:00 -2°C° 0 mm 1 mps 598 mmHg 48%
    10:00 -1°C° 0 mm 1 mps 599 mmHg 52%
    11:00 0°C° 0 mm 1 mps 599 mmHg 55%
    12:00 +1°C° 0 mm 1 mps 599 mmHg 59%
    13:00 +2°C° 0 mm 1 mps 599 mmHg 62%
    14:00 +1°C° 0 mm 1 mps 598 mmHg 62%
    15:00 +1°C° 0 mm 1 mps 598 mmHg 62%
    16:00 0°C° 0 mm 1 mps 597 mmHg 62%
    17:00 -3°C° 0 mm 2 mps 597 mmHg 61%
    18:00 -4°C° 0 mm 2 mps 597 mmHg 60%
    19:00 -5°C° 0 mm 2 mps 596 mmHg 59%
    20:00 -5°C° 0 mm 2 mps 596 mmHg 60%
    21:00 -5°C° 0 mm 2 mps 596 mmHg 61%
    22:00 -5°C° 0 mm 2 mps 596 mmHg 62%
    23:00 -5°C° 0 mm 2 mps 596 mmHg 63%
    Show more